| time (UTC) | temp F | wind direction | speed MPH | gust MPH | rain 1hr in | rain 24hr in | rain mn in | humidity % | barometer mb |
| 20260509004546 | 55 | 224 | 0.0 | 0.0 | 0.00 | 0.00 | 0.00 | 84 | 1022.6 |
| 20260509003100 | 56 | 254 | 0.0 | 3.0 | 0.00 | 0.00 | 0.00 | 83 | 1022.5 |
| 20260509001549 | 56 | 360 | 0.0 | 6.0 | 0.00 | 0.00 | 0.00 | 83 | 1022.6 |
| 20260509000040 | 56 | 224 | 1.0 | 6.0 | 0.00 | 0.00 | 0.00 | 83 | 1022.6 |
| 20260508234533 | 57 | 246 | 2.0 | 5.0 | 0.00 | 0.00 | 0.00 | 82 | 1022.6 |
| 20260508233053 | 56 | 254 | 0.0 | 3.0 | 0.00 | 0.00 | 0.00 | 82 | 1022.6 |
| 20260508231546 | 57 | 360 | 3.0 | 7.0 | 0.00 | 0.00 | 0.00 | 81 | 1022.6 |
| 20260508230037 | 57 | 257 | 1.0 | 5.0 | 0.00 | 0.00 | 0.00 | 81 | 1022.5 |
| 20260508224551 | 57 | 214 | 3.0 | 9.0 | 0.00 | 0.00 | 0.00 | 81 | 1022.5 |
| 20260508223046 | 57 | 215 | 4.0 | 8.0 | 0.00 | 0.00 | 0.00 | 80 | 1022.5 |
| 20260508221542 | 57 | 254 | 4.0 | 7.0 | 0.00 | 0.00 | 0.00 | 79 | 1022.4 |
| 20260508220050 | 58 | 217 | 5.0 | 10.0 | 0.00 | 0.00 | 0.00 | 78 | 1022.4 |
| 20260508214548 | 57 | 252 | 4.0 | 10.0 | 0.00 | 0.00 | 0.00 | 77 | 1022.3 |
| 20260508213042 | 57 | 266 | 2.0 | 8.0 | 0.00 | 0.00 | 0.00 | 80 | 1022.1 |
| 20260508211539 | 57 | 252 | 2.0 | 9.0 | 0.00 | 0.00 | 0.00 | 79 | 1022.2 |
| 20260508210047 | 57 | 175 | 2.0 | 6.0 | 0.00 | 0.00 | 0.00 | 77 | 1022.0 |
| 20260508204541 | 57 | 245 | 2.0 | 7.0 | 0.00 | 0.00 | 0.00 | 79 | 1021.8 |
| 20260508203039 | 56 | 265 | 2.0 | 5.0 | 0.00 | 0.00 | 0.00 | 78 | 1021.7 |
| 20260508201551 | 56 | 230 | 0.0 | 4.0 | 0.00 | 0.00 | 0.00 | 78 | 1021.6 |
| 20260508200042 | 56 | 244 | 2.0 | 5.0 | 0.00 | 0.00 | 0.00 | 78 | 1021.6 |
| 20260508194535 | 56 | 262 | 3.0 | 6.0 | 0.00 | 0.00 | 0.00 | 78 | 1021.5 |
| 20260508193033 | 56 | 284 | 0.0 | 7.0 | 0.00 | 0.00 | 0.00 | 79 | 1021.3 |
| 20260508191546 | 55 | 211 | 0.0 | 7.0 | 0.00 | 0.00 | 0.00 | 79 | 1021.2 |
| 20260508190039 | 56 | 261 | 3.0 | 5.0 | 0.00 | 0.00 | 0.00 | 79 | 1021.2 |
| 20260508184534 | 55 | 211 | 0.0 | 6.0 | 0.00 | 0.00 | 0.00 | 79 | 1021.2 |
| 20260508183048 | 55 | 229 | 3.0 | 6.0 | 0.00 | 0.00 | 0.00 | 80 | 1021.2 |
| 20260508181604 | 54 | 223 | 1.0 | 5.0 | 0.00 | 0.00 | 0.00 | 80 | 1021.1 |
| 20260508180051 | 54 | 360 | 3.0 | 5.0 | 0.00 | 0.00 | 0.00 | 80 | 1021.0 |
| 20260508174549 | 54 | 248 | 2.0 | 5.0 | 0.00 | 0.00 | 0.00 | 81 | 1021.0 |
| 20260508173044 | 53 | 248 | 0.0 | 6.0 | 0.00 | 0.00 | 0.00 | 81 | 1020.9 |
| 20260508171556 | 53 | 277 | 1.0 | 3.0 | 0.00 | 0.00 | 0.00 | 81 | 1020.8 |
| 20260508170047 | 53 | 360 | 1.0 | 7.0 | 0.00 | 0.00 | 0.00 | 81 | 1020.8 |
| 20260508164539 | 53 | 263 | 0.0 | 0.0 | 0.00 | 0.00 | 0.00 | 81 | 1020.6 |
| 20260508163037 | 53 | 228 | 0.0 | 0.0 | 0.00 | 0.00 | 0.00 | 81 | 1020.4 |
| 20260508161610 | 53 | 232 | 0.0 | 0.0 | 0.00 | 0.00 | 0.00 | 82 | 1020.2 |
| 20260508160042 | 52 | 210 | 0.0 | 0.0 | 0.00 | 0.00 | 0.00 | 82 | 1020.4 |
| 20260508154536 | 52 | 226 | 0.0 | 0.0 | 0.00 | 0.00 | 0.00 | 81 | 1020.2 |
| 20260508153049 | 52 | 238 | 0.0 | 0.0 | 0.00 | 0.00 | 0.00 | 82 | 1020.0 |
| 20260508151546 | 52 | 261 | 0.0 | 0.0 | 0.00 | 0.00 | 0.00 | 82 | 1019.7 |
| 20260508150053 | 51 | 269 | 0.0 | 0.0 | 0.00 | 0.00 | 0.00 | 82 | 1019.6 |
| 20260508144551 | 51 | 247 | 0.0 | 0.0 | 0.00 | 0.00 | 0.00 | 82 | 1019.3 |
| 20260508143105 | 51 | 240 | 0.0 | 0.0 | 0.00 | 0.00 | 0.00 | 82 | 1019.4 |
| 20260508141541 | 51 | 233 | 0.0 | 0.0 | 0.00 | 0.00 | 0.00 | 82 | 1019.1 |
| 20260508140049 | 51 | 248 | 0.0 | 0.0 | 0.00 | 0.00 | 0.00 | 82 | 1019.3 |
| 20260508134543 | 51 | 244 | 0.0 | 0.0 | 0.00 | 0.00 | 0.00 | 83 | 1019.2 |
| 20260508133041 | 51 | 221 | 0.0 | 0.0 | 0.00 | 0.00 | 0.00 | 83 | 1019.1 |
| 20260508131553 | 50 | 228 | 0.0 | 0.0 | 0.00 | 0.00 | 0.00 | 84 | 1019.0 |
| 20260508130045 | 50 | 246 | 0.0 | 0.0 | 0.00 | 0.00 | 0.00 | 87 | 1018.8 |
| 20260508124539 | 49 | 212 | 0.0 | 0.0 | 0.00 | 0.00 | 0.00 | 89 | 1018.8 |
| 20260508123036 | 48 | 320 | 0.0 | 0.0 | 0.00 | 0.00 | 0.00 | 89 | 1018.8 |
| 20260508121549 | 48 | 320 | 0.0 | 0.0 | 0.00 | 0.00 | 0.00 | 89 | 1018.7 |
| 20260508120037 | 48 | 320 | 0.0 | 0.0 | 0.00 | 0.00 | 0.00 | 90 | 1018.5 |
| 20260508114535 | 48 | 320 | 0.0 | 0.0 | 0.00 | 0.00 | 0.00 | 90 | 1018.5 |
| 20260508113048 | 48 | 320 | 0.0 | 0.0 | 0.00 | 0.00 | 0.00 | 90 | 1018.5 |
| 20260508111544 | 48 | 320 | 0.0 | 0.0 | 0.00 | 0.00 | 0.00 | 90 | 1018.3 |
| 20260508110033 | 48 | 320 | 0.0 | 0.0 | 0.00 | 0.00 | 0.00 | 90 | 1018.4 |
| 20260508104547 | 47 | 320 | 0.0 | 0.0 | 0.00 | 0.00 | 0.00 | 90 | 1018.3 |
| 20260508103042 | 46 | 320 | 0.0 | 0.0 | 0.00 | 0.00 | 0.00 | 90 | 1018.1 |
| 20260508101534 | 46 | 320 | 0.0 | 0.0 | 0.00 | 0.00 | 0.00 | 90 | 1018.0 |
| 20260508100107 | 46 | 320 | 0.0 | 0.0 | 0.00 | 0.00 | 0.00 | 89 | 1017.7 |
| 20260508094559 | 46 | 320 | 0.0 | 0.0 | 0.00 | 0.00 | 0.00 | 89 | 1017.6 |
| 20260508093032 | 46 | 320 | 0.0 | 0.0 | 0.00 | 0.00 | 0.00 | 89 | 1017.5 |
| 20260508091549 | 46 | 320 | 0.0 | 0.0 | 0.00 | 0.00 | 0.00 | 89 | 1017.5 |
| 20260508090037 | 46 | 320 | 0.0 | 0.0 | 0.00 | 0.00 | 0.00 | 89 | 1017.6 |
| 20260508084536 | 46 | 320 | 0.0 | 0.0 | 0.00 | 0.00 | 0.00 | 89 | 1017.6 |
| 20260508083050 | 47 | 320 | 0.0 | 0.0 | 0.00 | 0.00 | 0.00 | 88 | 1017.6 |
| 20260508081546 | 47 | 320 | 0.0 | 0.0 | 0.00 | 0.00 | 0.00 | 88 | 1017.3 |
| 20260508080034 | 47 | 320 | 0.0 | 0.0 | 0.00 | 0.00 | 0.00 | 88 | 1017.3 |
| 20260508074548 | 47 | 321 | 0.0 | 0.0 | 0.00 | 0.00 | 0.00 | 88 | 1017.4 |
| 20260508073045 | 47 | 320 | 0.0 | 0.0 | 0.00 | 0.00 | 0.00 | 88 | 1017.4 |
| 20260508071538 | 47 | 320 | 0.0 | 0.0 | 0.00 | 0.00 | 0.00 | 87 | 1017.4 |
| 20260508070050 | 48 | 321 | 0.0 | 0.0 | 0.00 | 0.00 | 0.00 | 87 | 1017.4 |
| 20260508064543 | 48 | 320 | 0.0 | 0.0 | 0.00 | 0.00 | 0.00 | 86 | 1017.3 |
| 20260508063041 | 48 | 320 | 0.0 | 0.0 | 0.00 | 0.00 | 0.00 | 86 | 1017.1 |
| 20260508061533 | 48 | 321 | 0.0 | 0.0 | 0.00 | 0.00 | 0.00 | 86 | 1017.2 |
| 20260508060041 | 49 | 314 | 0.0 | 0.0 | 0.00 | 0.00 | 0.00 | 85 | 1017.3 |
| 20260508054558 | 49 | 314 | 0.0 | 0.0 | 0.00 | 0.00 | 0.00 | 85 | 1017.4 |
| 20260508053051 | 49 | 314 | 0.0 | 0.0 | 0.00 | 0.00 | 0.00 | 85 | 1017.6 |
| 20260508051548 | 49 | 314 | 0.0 | 0.0 | 0.00 | 0.00 | 0.00 | 84 | 1017.6 |
| 20260508050035 | 50 | 311 | 0.0 | 0.0 | 0.00 | 0.00 | 0.00 | 84 | 1017.7 |
| 20260508044547 | 51 | 311 | 0.0 | 0.0 | 0.00 | 0.00 | 0.00 | 83 | 1017.7 |
| 20260508043044 | 51 | 311 | 0.0 | 0.0 | 0.00 | 0.00 | 0.00 | 83 | 1017.8 |
| 20260508041537 | 52 | 311 | 0.0 | 0.0 | 0.00 | 0.00 | 0.00 | 82 | 1017.8 |
| 20260508040050 | 52 | 257 | 0.0 | 0.0 | 0.00 | 0.00 | 0.00 | 82 | 1017.8 |
| 20260508034603 | 53 | 257 | 0.0 | 0.0 | 0.00 | 0.00 | 0.00 | 82 | 1017.6 |
| 20260508033039 | 53 | 360 | 1.0 | 5.0 | 0.00 | 0.00 | 0.00 | 82 | 1017.6 |
| 20260508031553 | 54 | 360 | 4.0 | 7.0 | 0.00 | 0.00 | 0.00 | 81 | 1017.7 |
| 20260508030040 | 54 | 247 | 4.0 | 6.0 | 0.00 | 0.00 | 0.00 | 81 | 1017.3 |
| 20260508024537 | 54 | 219 | 0.0 | 4.0 | 0.00 | 0.00 | 0.00 | 81 | 1017.2 |
| 20260508023049 | 54 | 242 | 5.0 | 9.0 | 0.00 | 0.00 | 0.00 | 80 | 1017.4 |
| 20260508021546 | 55 | 200 | 4.0 | 7.0 | 0.00 | 0.00 | 0.00 | 79 | 1017.6 |
| 20260508020036 | 56 | 360 | 5.0 | 8.0 | 0.00 | 0.00 | 0.00 | 79 | 1017.6 |
| 20260508014533 | 56 | 258 | 4.0 | 8.0 | 0.00 | 0.00 | 0.00 | 79 | 1017.7 |
| 20260508013048 | 56 | 240 | 4.0 | 10.0 | 0.00 | 0.00 | 0.00 | 79 | 1018.0 |
| 20260508011600 | 55 | 240 | 7.0 | 12.0 | 0.00 | 0.00 | 0.00 | 79 | 1018.1 |
| 20260508010051 | 56 | 229 | 6.0 | 12.0 | 0.00 | 0.00 | 0.00 | 79 | 1018.4 |